Regional Weather Roundup
Issued by NWS

Home | Current Version | Previous Version | Graphics & Text | Print | Product List | Glossary Off
Versions: 1 2 3 4 5 6 7 8 9 10 11 12 13 14 15 16 17 18 19 20 21 22 23 24 25 26 27 28 29 30 31 32 33 34 35 36 37 38 39 40 41 42 43 44 45 46 47 48 49 50

351
ASUS43 KTOP 211659
RWRKS

WEATHER ROUNDUP FOR KANSAS
NATIONAL WEATHER SERVICE GOODLAND KS
1100 AM CST WED FEB 21 2018

NOTE:  "FAIR" INDICATES FEW OR NO CLOUDS BELOW 12,000 FEET WITH NO
SIGNIFICANT WEATHER AND/OR OBSTRUCTIONS TO VISIBILITY.

KSZ001>006-013>018-027>032-041>047-211800-
NORTHWEST KANSAS

CITY           SKY/WX    TMP DP  RH WIND       PRES   REMARKS
GOODLAND       MOSUNNY   19   4  51 S10       30.38F WCI   7
HAYS           SUNNY     19   2  47 NE12      30.54  WCI   7
HILL CITY      SUNNY     17   2  51 CALM      30.55S
RUSSELL        CLOUDY    20   2  45 NE8       30.54S
$$

KSZ061>065-074>080-084>089-211800-
SOUTHWEST KANSAS

CITY           SKY/WX    TMP DP  RH WIND       PRES   REMARKS
DODGE CITY     CLOUDY    16   0  49 NE10      30.48F WCI   4
GARDEN CITY    CLOUDY    17   0  47 NE12      30.46F WCI   4
GREAT BEND     CLOUDY    18   3  52 N10       30.55R WCI   6
LIBERAL        CLOUDY    19   2  47 NE13      30.44F WCI   6
$$

KSZ066>073-081>083-090>101-211800-
SOUTHEAST KANSAS

CITY           SKY/WX    TMP DP  RH WIND       PRES   REMARKS
CHANUTE        CLOUDY    22  19  89 NE10G18   30.50F WCI  11
COFFEYVILLE    CLOUDY    25  21  85 N17       30.49F WCI  12
HUTCHINSON     CLOUDY    18   8  65 N15G21    30.54R WCI   4
MEDICINE LODGE   N/A     21   8  57 N16       30.49F WCI   7
NEWTON         CLOUDY    19  14  81 N17       30.52R WCI   4
PARSONS        CLOUDY    24  21  88 NE10G18   30.49F WCI  14
WICHITA INTL   CLOUDY    21  13  71 N14       30.53R WCI   8
WICHITA JABRA  CLOUDY    19  14  81 NE15      30.52R WCI   5
WICHITA MCCONL CLOUDY    20  13  74 NE14      30.51R WCI   6
WINFIELD       CLOUDY    23  18  81 NE13      30.51R WCI  11
$$

KSZ007>012-019>026-033>040-048>060-102>105-211800-
NORTHEAST KANSAS

CITY           SKY/WX    TMP DP  RH WIND       PRES   REMARKS
CONCORDIA      CLOUDY    19   3  49 NE10      30.58F WCI   7
EMPORIA        CLOUDY    20  14  77 N17       30.53F WCI   5
LAWRENCE       CLOUDY    22  16  78 N9        30.59F
MANHATTAN      MOSUNNY   21   9  59 NE12      30.60F WCI   9
OLATHE IND     MOSUNNY   20  16  84 N14       30.57F WCI   7
OLATHE EXE     MOSUNNY   20  16  84 N13       30.55F WCI   7
SALINA         MOSUNNY   22   8  55 N13       30.59S WCI  10
TOPEKA BILLARD CLOUDY    20  14  77 NE15      30.59F WCI   6
TOPEKA FORBES  CLOUDY    20  13  74 N13       30.56F WCI   7
$$




USA.gov is the U.S. government's official web portal to all federal, state and local government web resources and services.